When you browse on this site, cookies collect data to enhance your experience and personalize the content and advertising you see.
Visit our Privacy Policy to learn more. By continuing to use the site, you agree to this use of cookies and data.

Hourly Weather Washington

Today, 9 August, Sunday

Time Temperature Precipitation Wind Pressure Humidity
00:00 +24°C° 0 mm 1 mps 758 mmHg 89%
01:00 +24°C° 0 mm 1 mps 758 mmHg 90%
02:00 +24°C° 0 mm 1 mps 758 mmHg 91%
03:00 +23°C° 0 mm 1 mps 757 mmHg 92%
04:00 +23°C° 0 mm 1 mps 757 mmHg 92%
05:00 +22°C° 0 mm 0 mps 758 mmHg 91%
06:00 +23°C° 0 mm 0 mps 758 mmHg 89%
07:00 +23°C° 0 mm 0 mps 758 mmHg 87%
08:00 +25°C° 0 mm 0 mps 758 mmHg 80%
09:00 +29°C° 0 mm 1 mps 758 mmHg 72%
10:00 +31°C° 0 mm 1 mps 758 mmHg 65%
11:00 +32°C° 0.2 mm 1 mps 758 mmHg 61%
12:00 +32°C° 0.2 mm 1 mps 757 mmHg 58%
13:00 +34°C° 0.2 mm 2 mps 757 mmHg 54%
14:00 +33°C° 0 mm 1 mps 757 mmHg 53%
15:00 +33°C° 0 mm 1 mps 756 mmHg 53%
16:00 +33°C° 0 mm 1 mps 756 mmHg 52%
17:00 +32°C° 0 mm 1 mps 756 mmHg 58%
18:00 +30°C° 0 mm 1 mps 756 mmHg 65%
19:00 +29°C° 0 mm 1 mps 756 mmHg 71%
20:00 +28°C° 0 mm 1 mps 756 mmHg 75%
21:00 +27°C° 0 mm 2 mps 756 mmHg 79%
22:00 +26°C° 0 mm 2 mps 756 mmHg 82%
23:00 +25°C° 0 mm 2 mps 756 mmHg 84%

Tomorrow, 10 August, Monday

Time Temperature Precipitation Wind Pressure Humidity
00:00 +25°C° 0 mm 1 mps 756 mmHg 86%
01:00 +25°C° 0 mm 1 mps 756 mmHg 88%
02:00 +24°C° 0 mm 1 mps 756 mmHg 88%
03:00 +24°C° 0 mm 1 mps 756 mmHg 89%
04:00 +24°C° 0 mm 1 mps 756 mmHg 89%
05:00 +24°C° 0 mm 1 mps 756 mmHg 87%
06:00 +23°C° 0 mm 0 mps 756 mmHg 85%
07:00 +24°C° 0 mm 0 mps 756 mmHg 82%
08:00 +26°C° 0 mm 0 mps 756 mmHg 75%
09:00 +28°C° 0 mm 0 mps 756 mmHg 67%
10:00 +30°C° 0 mm 0 mps 756 mmHg 60%
11:00 +33°C° 0 mm 1 mps 756 mmHg 56%
12:00 +34°C° 0 mm 1 mps 755 mmHg 51%
13:00 +35°C° 0 mm 1 mps 755 mmHg 47%
14:00 +35°C° 0 mm 1 mps 755 mmHg 48%
15:00 +35°C° 0 mm 1 mps 754 mmHg 48%
16:00 +36°C° 0 mm 2 mps 753 mmHg 49%
17:00 +34°C° 0 mm 2 mps 754 mmHg 55%
18:00 +31°C° 0 mm 2 mps 754 mmHg 61%
19:00 +30°C° 0 mm 1 mps 754 mmHg 67%
20:00 +29°C° 0 mm 2 mps 754 mmHg 71%
21:00 +28°C° 0 mm 2 mps 754 mmHg 74%
22:00 +27°C° 0 mm 2 mps 754 mmHg 77%
23:00 +26°C° 0 mm 2 mps 754 mmHg 79%

Day after tomorrow, 11 August, Tuesday

Time Temperature Precipitation Wind Pressure Humidity
00:00 +26°C° 0 mm 2 mps 754 mmHg 81%
01:00 +25°C° 0 mm 2 mps 753 mmHg 83%
02:00 +25°C° 0 mm 1 mps 753 mmHg 84%
03:00 +24°C° 0 mm 1 mps 753 mmHg 86%
04:00 +24°C° 0 mm 1 mps 753 mmHg 87%
05:00 +25°C° 0 mm 1 mps 753 mmHg 85%
06:00 +25°C° 0 mm 1 mps 753 mmHg 83%
07:00 +26°C° 0 mm 1 mps 754 mmHg 81%
08:00 +28°C° 0 mm 1 mps 754 mmHg 73%
09:00 +30°C° 0 mm 1 mps 754 mmHg 66%
10:00 +32°C° 0 mm 2 mps 754 mmHg 59%
11:00 +34°C° 0.2 mm 2 mps 753 mmHg 55%
12:00 +35°C° 0.2 mm 2 mps 753 mmHg 51%
13:00 +36°C° 0.2 mm 3 mps 753 mmHg 47%
14:00 +36°C° 0 mm 3 mps 752 mmHg 48%
15:00 +36°C° 0 mm 2 mps 752 mmHg 49%
16:00 +36°C° 0 mm 2 mps 752 mmHg 50%
17:00 +34°C° 0 mm 2 mps 752 mmHg 56%
18:00 +33°C° 0 mm 3 mps 752 mmHg 62%
19:00 +30°C° 0 mm 3 mps 752 mmHg 68%
20:00 +29°C° 0.1 mm 3 mps 753 mmHg 72%
21:00 +28°C° 0.1 mm 2 mps 753 mmHg 77%
22:00 +27°C° 0.1 mm 2 mps 753 mmHg 81%
23:00 +27°C° 0.1 mm 2 mps 753 mmHg 83%

12 August, Wednesday

Time Temperature Precipitation Wind Pressure Humidity
00:00 +26°C° 0.1 mm 1 mps 753 mmHg 85%
01:00 +26°C° 0.1 mm 1 mps 753 mmHg 87%
02:00 +25°C° 0 mm 1 mps 753 mmHg 88%
03:00 +25°C° 0 mm 1 mps 753 mmHg 88%
04:00 +25°C° 0 mm 1 mps 753 mmHg 89%
05:00 +26°C° 0 mm 1 mps 753 mmHg 88%
06:00 +26°C° 0 mm 1 mps 753 mmHg 86%
07:00 +27°C° 0 mm 1 mps 754 mmHg 85%
08:00 +28°C° 0.3 mm 1 mps 754 mmHg 79%
09:00 +30°C° 0.3 mm 1 mps 754 mmHg 73%
10:00 +32°C° 0.3 mm 1 mps 754 mmHg 66%
11:00 +33°C° 0.7 mm 1 mps 754 mmHg 63%
12:00 +33°C° 0.7 mm 1 mps 753 mmHg 61%
13:00 +34°C° 0.7 mm 1 mps 753 mmHg 58%
14:00 +34°C° 0.4 mm 1 mps 753 mmHg 57%
15:00 +34°C° 0.4 mm 1 mps 753 mmHg 57%
16:00 +34°C° 0.4 mm 1 mps 753 mmHg 56%
17:00 +32°C° 0.5 mm 1 mps 753 mmHg 63%
18:00 +31°C° 0.5 mm 1 mps 753 mmHg 70%
19:00 +29°C° 0.5 mm 1 mps 753 mmHg 77%
20:00 +28°C° 0.9 mm 1 mps 754 mmHg 80%
21:00 +28°C° 0.9 mm 1 mps 754 mmHg 83%
22:00 +27°C° 0.9 mm 1 mps 754 mmHg 86%
23:00 +27°C° 0.2 mm 1 mps 754 mmHg 87%

13 August, Thursday

Time Temperature Precipitation Wind Pressure Humidity
00:00 +27°C° 0.2 mm 1 mps 754 mmHg 88%
01:00 +24°C° 0.2 mm 0 mps 754 mmHg 88%
02:00 +24°C° 0.5 mm 0 mps 754 mmHg 89%
03:00 +26°C° 0.5 mm 1 mps 754 mmHg 90%
04:00 +26°C° 0.5 mm 1 mps 754 mmHg 91%
05:00 +24°C° 1.5 mm 0 mps 754 mmHg 91%
06:00 +24°C° 1.5 mm 0 mps 754 mmHg 91%
07:00 +24°C° 1.5 mm 0 mps 755 mmHg 91%
08:00 +26°C° 0.3 mm 0 mps 755 mmHg 84%
09:00 +30°C° 0.3 mm 1 mps 755 mmHg 78%
10:00 +32°C° 0.3 mm 1 mps 755 mmHg 71%
11:00 +32°C° 1 mm 1 mps 754 mmHg 68%
12:00 +34°C° 1 mm 2 mps 754 mmHg 64%
13:00 +35°C° 1 mm 2 mps 754 mmHg 61%
14:00 +34°C° 1.7 mm 2 mps 753 mmHg 64%
15:00 +34°C° 1.7 mm 2 mps 753 mmHg 68%
16:00 +32°C° 1.7 mm 2 mps 753 mmHg 71%
17:00 +31°C° 0.7 mm 1 mps 753 mmHg 74%
18:00 +30°C° 0.7 mm 1 mps 753 mmHg 77%
19:00 +29°C° 0.7 mm 1 mps 753 mmHg 80%
20:00 +28°C° 0 mm 1 mps 753 mmHg 82%
21:00 +28°C° 0 mm 1 mps 753 mmHg 84%
22:00 +27°C° 0 mm 1 mps 753 mmHg 86%
23:00 +27°C° 0.1 mm 1 mps 753 mmHg 87%

14 August, Friday

Time Temperature Precipitation Wind Pressure Humidity
00:00 +26°C° 0.1 mm 1 mps 753 mmHg 89%
01:00 +26°C° 0.1 mm 1 mps 753 mmHg 91%
02:00 +26°C° 0 mm 1 mps 753 mmHg 92%
03:00 +26°C° 0 mm 1 mps 753 mmHg 93%
04:00 +25°C° 0 mm 1 mps 753 mmHg 94%
05:00 +26°C° 0 mm 1 mps 753 mmHg 93%
06:00 +26°C° 0 mm 1 mps 753 mmHg 92%
07:00 +24°C° 0 mm 0 mps 754 mmHg 91%
08:00 +27°C° 0 mm 1 mps 754 mmHg 87%
09:00 +28°C° 0 mm 1 mps 754 mmHg 83%
10:00 +30°C° 0 mm 1 mps 754 mmHg 78%
11:00 +31°C° 0 mm 1 mps 754 mmHg 74%
12:00 +32°C° 0 mm 1 mps 753 mmHg 70%
13:00 +33°C° 0 mm 1 mps 753 mmHg 66%
14:00 +32°C° 1.7 mm 1 mps 753 mmHg 69%
15:00 +32°C° 1.7 mm 1 mps 752 mmHg 72%
16:00 +32°C° 1.7 mm 1 mps 752 mmHg 76%
17:00 +31°C° 2.6 mm 1 mps 752 mmHg 78%
18:00 +29°C° 2.6 mm 2 mps 752 mmHg 81%
19:00 +28°C° 2.6 mm 2 mps 753 mmHg 83%
20:00 +28°C° 1.8 mm 2 mps 753 mmHg 85%
21:00 +27°C° 1.8 mm 2 mps 753 mmHg 87%
22:00 +26°C° 1.8 mm 2 mps 754 mmHg 89%
23:00 +26°C° 0.5 mm 2 mps 754 mmHg 90%
Show more